Home   Weather   New City   Past weeks

Flag for USA Past Weather in New City, New York, USA — Yesterday and Last 2 Weeks

64 °F


Feels Like: 64 °F
Forecast: 46 / 60 °F
Wind: 3 mph from Northwest

Location: Westchester County Airport

Current Time: Oct 21, 2016 at 11:39:06 PM

Latest Report: Oct 21, 2016 at 10:56 PM

Visibility: 3 mi

Pressure: 29.43 "Hg

Humidity: 97%

Dew Point: 63 °F

Location of New CityLocation

Past Weather in New City — Graph


New City Temperature Yesterday

Maximum temperature yesterday: 68 °F (at 12:56 PM)
Minimum temperature yesterday: 55 °F (at 2:56 AM)
Average temperature yesterday: 62 °F

High & Low Weather Summary for the Past Weeks

High82 °F (Oct 19, 1:56 PM)100% (Oct 13, 4:56 AM)30.47 "Hg (Oct 13, 4:56 AM)
Low40 °F (Oct 14, 5:56 AM)27% (Oct 10, 1:56 PM)29.45 "Hg (Oct 21, 9:56 PM)
Average59 °F74%30.12 "Hg
* Reported Oct 6 9:56 PM — Oct 21 9:56 PM, New City, Weather by CustomWeather, © 2016

Note: Actual official high and low records may vary slightly from our data, if they occured in-between our weather recording intervals... More about our weather records


New City Weather History for the Previous 24 Hours

Scroll right to see more
Time TempWeatherWind HumidityBarometerVisibility
9:56 PM
Fri, Oct 21
64 °FFog.No wind97%29.45 "Hg4 mi
8:56 PM64 °FFog.No wind97%29.46 "Hg0 mi
7:56 PM64 °FFog.3 mph97%29.48 "Hg0 mi
6:56 PM64 °FFog.No wind100%29.49 "Hg4 mi
5:56 PM67 °FScattered clouds.No wind93%29.50 "Hg10 mi
4:56 PM68 °FPartly sunny.3 mph93%29.53 "Hg8 mi
3:56 PM68 °FPartly sunny.No wind87%29.57 "Hg7 mi
2:56 PM67 °FLight rain. Fog.No wind93%29.61 "Hg1 mi
1:56 PM67 °FRain. Fog.3 mph93%29.65 "Hg1 mi
12:56 PM67 °FLight rain. Fog.6 mph93%29.68 "Hg2 mi
11:56 AM67 °FRain. Fog.5 mph97%29.71 "Hg1 mi
10:56 AM66 °FRain. Fog.6 mph96%29.73 "Hg1 mi
9:56 AM67 °FDrizzle. Fog.6 mph97%29.74 "Hg1 mi
8:56 AM66 °FLight rain. Fog.6 mph100%29.78 "Hg0 mi
7:56 AM66 °FFog.6 mph96%29.80 "Hg1 mi
6:56 AM66 °FFog.5 mph96%29.82 "Hg1 mi
5:56 AM66 °FFog.5 mph96%29.84 "Hg5 mi
4:56 AM66 °FFog.6 mph96%29.86 "Hg3 mi
3:56 AM65 °FFog.No wind97%29.87 "Hg0 mi
2:56 AM64 °FFog.5 mph100%29.89 "Hg0 mi
1:56 AM63 °FFog.8 mph100%29.91 "Hg0 mi
12:56 AM63 °FFog.6 mph97%29.94 "Hg0 mi
11:56 PM
Thu, Oct 20
63 °FFog.7 mph97%29.97 "Hg1 mi
Weather by CustomWeather, © 2016

See weather overviewHow to use our weather pages